1486839600.18,35039,10.69,73774.0,-8.99,-22.17,-22.03,0,*51
1486839601.43,35040,10.69,73774.5,-8.97,-22.17,-22.03,0,*51
1486839602.71,35041,10.75,73776.3,-8.99,-22.21,-21.97,0,*55
1486839603.95,35042,10.69,73772.8,-8.97,-22.17,-22.03,0,*53
1486839605.24,35043,10.69,73774.0,-8.99,-22.17,-21.97,0,*52
1486839606.5,35044,10.75,73778.0,-8.99,-22.17,-22.03,0,*5B
1486839607.77,35045,10.69,73772.8,-8.99,-22.17,-22.03,0,*5A
1486839609.05,35046,10.69,73774.5,-8.99,-22.17,-21.97,0,*57
1486839610.29,35047,10.75,73776.3,-8.97,-22.21,-22.03,0,*53
1486839611.55,35048,10.69,73776.3,-8.97,-22.17,-21.97,0,*57
1486839612.79,35049,10.75,73778.8,-8.97,-22.17,-22.03,0,*58
1486839614.05,35050,10.69,73774.3,-8.97,-22.21,-21.97,0,*5B
1486839615.31,35051,10.69,73778.3,-8.97,-22.21,-21.97,0,*5A
1486839616.6,35052,10.69,73776.0,-8.99,-22.21,-21.97,0,*57
1486839617.86,35053,10.69,73776.0,-8.97,-22.21,-21.97,0,*58
1486839619.12,35054,10.69,73778.3,-8.99,-22.21,-22.03,0,*5F
1486839620.38,35055,10.69,73776.0,-8.97,-22.31,-21.97,0,*5F
1486839621.66,35056,10.69,73776.3,-8.99,-22.31,-21.97,0,*52
1486839622.94,35057,10.75,73782.8,-8.99,-22.21,-21.97,0,*52
1486839624.22,35058,10.69,73780.8,-8.99,-22.31,-21.97,0,*5C
1486839625.52,35059,10.75,73778.5,-8.99,-22.17,-21.87,0,*58
1486839626.8,35060,10.69,73778.8,-8.99,-22.31,-21.97,0,*57
1486839628.08,35061,10.69,73778.8,-8.99,-22.21,-21.97,0,*57
1486839629.34,35062,10.69,73778.0,-8.99,-22.21,-22.03,0,*5A
1486839630.63,35063,10.69,73778.3,-8.99,-22.21,-21.87,0,*54
1486839631.92,35064,10.69,73780.8,-8.99,-22.21,-21.83,0,*57
1486839633.18,35065,10.69,73782.0,-8.97,-22.21,-21.87,0,*5C
1486839634.45,35066,10.69,73776.8,-8.97,-22.21,-21.83,0,*5B
1486839635.71,35067,10.69,73778.5,-8.97,-22.21,-21.87,0,*5E
1486839636.98,35068,10.75,73778.5,-8.97,-22.17,-21.87,0,*54
1486839638.22,35069,10.69,73778.8,-8.97,-22.37,-21.97,0,*56
1486839639.5,35070,10.69,73778.3,-8.99,-22.31,-21.97,0,*56
1486839640.76,35071,10.69,73780.5,-8.99,-22.37,-21.87,0,*50
1486839642.02,35072,10.69,73782.8,-8.99,-22.37,-21.97,0,*52
1486839643.3,35073,10.69,73782.3,-8.99,-22.31,-21.97,0,*55
1486839644.57,35074,10.69,73776.0,-8.97,-22.31,-21.87,0,*5D
1486839645.83,35075,10.69,73780.5,-8.97,-22.31,-21.87,0,*5C
1486839647.09,35076,10.75,73786.0,-8.99,-22.37,-21.97,0,*56
1486839648.36,35077,10.69,73780.5,-8.99,-22.37,-21.87,0,*56
1486839649.62,35078,10.69,73778.3,-8.99,-22.37,-21.87,0,*59
1486839650.88,35079,10.69,73778.3,-8.99,-22.37,-21.83,0,*5C
1486839652.17,35080,10.69,73782.3,-8.99,-22.31,-21.87,0,*58
1486839653.43,35081,10.69,73780.3,-8.97,-22.31,-21.83,0,*53
1486839654.67,35082,10.69,73780.3,-8.97,-22.37,-21.87,0,*52
1486839655.96,35083,10.75,73786.0,-8.99,-22.31,-21.83,0,*5F
1486839657.24,35084,10.75,73786.0,-8.99,-22.31,-21.83,0,*58
1486839658.47,35085,10.69,73780.0,-8.97,-22.31,-21.73,0,*58
1486839659.74,35086,10.69,73784.5,-8.99,-22.37,-21.83,0,*5C
1486839661.0,35087,10.69,73780.5,-8.99,-22.37,-21.83,0,*5D
1486839662.26,35088,10.69,73780.5,-8.99,-22.53,-21.87,0,*54
1486839663.53,35089,10.69,73786.0,-8.99,-22.37,-21.83,0,*53
1486839664.79,35090,10.69,73780.0,-8.97,-22.31,-21.83,0,*53
1486839666.05,35091,10.69,73782.3,-8.97,-22.31,-21.83,0,*52
1486839667.3,35092,10.69,73782.5,-8.99,-22.31,-21.73,0,*50
1486839668.59,35093,10.69,73782.0,-8.99,-22.31,-21.83,0,*5E
1486839669.85,35094,10.75,73784.3,-8.99,-22.37,-21.87,0,*5B
1486839671.09,35095,10.69,73780.8,-8.97,-22.37,-21.83,0,*50
1486839672.3,35096,10.69,73782.3,-8.97,-22.37,-21.73,0,*5C
1486839673.56,35097,10.69,73780.5,-8.97,-22.31,-21.83,0,*54
1486839674.83,35098,10.69,73780.5,-8.97,-22.31,-21.87,0,*5F
1486839676.09,35099,10.69,73782.8,-8.99,-22.37,-21.83,0,*52
1486839677.37,35100,10.69,73782.5,-8.99,-22.31,-21.83,0,*55
1486839678.62,35101,10.69,73782.8,-8.99,-22.31,-21.73,0,*5B
1486839679.91,35102,10.69,73782.5,-8.99,-22.31,-21.83,0,*57
1486839681.17,35103,10.69,73778.5,-8.99,-22.37,-21.83,0,*50
1486839682.46,35104,10.69,73780.3,-8.99,-22.31,-21.83,0,*51
1486839683.72,35105,10.69,73780.5,-8.99,-22.37,-21.83,0,*56
1486839684.98,35106,10.69,73782.0,-8.99,-22.37,-21.87,0,*51
1486839686.25,35107,10.69,73778.0,-8.99,-22.37,-21.87,0,*50
1486839687.48,35108,10.69,73782.5,-8.97,-22.37,-21.83,0,*55
1486839688.72,35109,10.69,73780.0,-8.95,-22.27,-21.77,0,*5C
1486839689.93,35110,10.75,73782.0,-8.97,-22.37,-21.73,0,*53
1486839691.21,35111,10.69,73778.5,-8.99,-22.31,-21.67,0,*5F
1486839692.5,35112,10.69,73778.5,-8.99,-22.21,-21.67,0,*5D
1486839693.71,35113,10.75,73786.5,-8.97,-22.37,-21.73,0,*50
1486839695.0,35114,10.69,73778.8,-8.99,-22.31,-21.67,0,*5A
1486839696.28,35115,10.69,73782.5,-8.99,-22.31,-21.67,0,*5B
1486839697.55,35116,10.69,73780.0,-8.97,-22.31,-21.67,0,*56
1486839698.81,35117,10.69,73776.8,-8.97,-22.31,-21.67,0,*57
1486839700.02,35118,10.69,73778.3,-8.97,-22.37,-21.73,0,*5B
1486839701.25,35119,10.69,73776.5,-8.97,-22.31,-21.73,0,*5C
1486839702.52,35120,10.69,73780.8,-8.97,-22.21,-21.67,0,*52
1486839703.8,35121,10.69,73780.0,-8.99,-22.31,-21.67,0,*5C
1486839705.07,35122,10.69,73780.3,-8.99,-22.37,-21.67,0,*59
1486839706.31,35123,10.75,73784.0,-8.97,-22.37,-21.67,0,*56
1486839707.59,35124,10.69,73784.0,-8.99,-22.17,-21.57,0,*5E
1486839708.85,35125,10.69,73776.5,-8.97,-22.21,-21.57,0,*54
1486839710.12,35126,10.69,73780.8,-8.97,-22.17,-21.67,0,*51
1486839711.4,35127,10.69,73784.5,-8.99,-22.21,-21.53,0,*5C
1486839712.68,35128,10.69,73778.3,-8.99,-22.31,-21.57,0,*56
1486839713.95,35129,10.69,73780.3,-8.97,-22.31,-21.67,0,*5A
1486839715.24,35130,10.75,73786.0,-8.99,-22.31,-21.67,0,*5C
1486839716.52,35131,10.69,73784.3,-8.99,-22.31,-21.67,0,*5D
1486839717.78,35132,10.69,73784.3,-8.99,-22.37,-21.57,0,*5B
1486839719.04,35133,10.69,73780.5,-8.97,-22.21,-21.67,0,*50
1486839720.31,35134,10.69,73784.3,-8.97,-22.21,-21.67,0,*57
1486839721.57,35135,10.69,73784.5,-8.97,-22.21,-21.53,0,*51
1486839722.83,35136,10.69,73782.8,-8.99,-22.37,-21.57,0,*5F
1486839724.07,35137,10.69,73782.8,-8.97,-22.37,-21.67,0,*53
1486839725.35,35138,10.69,73784.0,-8.99,-22.31,-21.53,0,*53
1486839726.61,35139,10.69,73784.5,-8.97,-22.21,-21.57,0,*59
1486839727.89,35140,10.69,73778.3,-8.99,-22.31,-21.57,0,*58
1486839729.15,35141,10.69,73782.8,-8.99,-22.37,-21.53,0,*5B
1486839730.41,35142,10.69,73780.8,-8.97,-22.31,-21.57,0,*54
1486839731.67,35143,10.69,73782.5,-8.97,-22.21,-21.57,0,*54
1486839732.93,35144,10.75,73784.8,-8.97,-22.17,-21.53,0,*52
1486839734.22,35145,10.69,73776.8,-8.99,-22.31,-21.53,0,*59
1486839735.48,35146,10.69,73782.8,-8.97,-22.31,-21.53,0,*54
1486839736.71,35147,10.69,73782.8,-8.97,-22.37,-21.53,0,*53
1486839737.99,35148,10.69,73780.0,-8.99,-22.31,-21.57,0,*50
1486839739.25,35149,10.69,73778.8,-8.97,-22.31,-21.53,0,*5B
1486839740.52,35150,10.69,73780.8,-8.97,-22.31,-21.53,0,*53
1486839741.78,35151,10.69,73780.5,-8.97,-22.17,-21.53,0,*56
1486839743.04,35152,10.69,73778.8,-8.97,-22.21,-21.53,0,*50
1486839744.33,35153,10.69,73782.3,-8.99,-22.21,-21.53,0,*5F
1486839745.59,35154,10.69,73782.3,-8.97,-22.21,-21.53,0,*56
1486839746.85,35155,10.69,73780.8,-8.97,-22.31,-21.53,0,*56
1486839748.13,35156,10.69,73784.0,-8.99,-22.31,-21.53,0,*5B
1486839749.4,35157,10.69,73782.5,-8.97,-22.21,-21.53,0,*55
1486839750.66,35158,10.69,73786.5,-8.97,-22.17,-21.53,0,*5F
1486839751.95,35159,10.69,73782.3,-8.99,-22.21,-21.53,0,*55
1486839753.24,35160,10.69,73784.3,-8.99,-22.17,-21.53,0,*5A
1486839754.52,35161,10.69,73784.3,-8.99,-22.21,-21.53,0,*5E
1486839755.78,35162,10.69,73786.8,-8.99,-22.17,-21.43,0,*59
1486839757.02,35163,10.69,73790.3,-8.97,-22.17,-21.39,0,*5B
1486839758.29,35164,10.69,73788.5,-8.99,-22.17,-21.43,0,*5F
1486839759.52,35165,10.69,73790.0,-8.97,-22.17,-21.43,0,*50
1486839760.77,35166,10.69,73784.5,-8.97,-22.17,-21.39,0,*5E
1486839762.01,35167,10.69,73782.5,-8.97,-22.17,-21.39,0,*5F
1486839763.25,35168,10.69,73784.3,-8.97,-22.17,-21.39,0,*50
1486839764.49,35169,10.69,73786.0,-8.97,-22.21,-21.39,0,*54
1486839765.72,35170,10.69,73786.3,-8.97,-22.21,-21.43,0,*51
1486839766.96,35171,10.69,73786.0,-8.97,-22.17,-21.39,0,*58
1486839768.23,35172,10.69,73784.8,-8.99,-22.17,-21.39,0,*55
1486839769.5,35173,10.69,73790.3,-8.97,-22.17,-21.27,0,*55
1486839770.74,35174,10.69,73786.3,-8.97,-22.17,-21.39,0,*5D
1486839771.98,35175,10.69,73790.5,-8.97,-22.17,-21.43,0,*51
1486839773.24,35176,10.69,73786.0,-8.97,-22.21,-21.27,0,*55
1486839774.49,35177,10.69,73786.0,-8.97,-22.17,-21.39,0,*5E
1486839775.76,35178,10.69,73784.3,-8.97,-22.17,-21.27,0,*5E
1486839777.03,35179,10.69,73786.8,-8.97,-22.17,-21.27,0,*5F
1486839778.3,35180,10.69,73784.8,-8.97,-22.17,-21.27,0,*59
1486839779.57,35181,10.69,73786.5,-8.97,-22.17,-21.27,0,*58
1486839780.84,35182,10.69,73784.8,-8.97,-22.17,-21.27,0,*5B
1486839782.11,35183,10.69,73786.5,-8.97,-22.17,-21.27,0,*5A
1486839783.38,35184,10.69,73786.0,-8.97,-22.17,-21.23,0,*59
1486839784.68,35185,10.69,73782.3,-8.99,-22.17,-21.27,0,*52
1486839785.95,35186,10.69,73786.5,-8.97,-22.17,-21.23,0,*5B
1486839787.22,35187,10.69,73782.3,-8.97,-22.17,-21.23,0,*5A
1486839788.49,35188,10.69,73784.0,-8.97,-22.21,-21.23,0,*50
1486839789.77,35189,10.69,73784.8,-8.97,-22.17,-21.23,0,*54
1486839791.0,35190,10.69,73786.5,-8.95,-22.11,-21.17,0,*5F
1486839792.26,35191,10.69,73784.3,-8.95,-22.07,-21.23,0,*5E
1486839793.5,35192,10.69,73784.5,-8.95,-22.07,-21.17,0,*5A
1486839794.73,35193,10.69,73784.0,-8.95,-22.07,-21.17,0,*5B
1486839795.96,35194,10.69,73782.5,-8.95,-22.07,-21.17,0,*5C
1486839797.19,35195,10.69,73784.5,-8.95,-22.07,-21.17,0,*5D
1486839798.43,35196,10.69,73784.3,-8.97,-22.11,-21.23,0,*5C
1486839799.66,35197,10.69,73782.3,-8.95,-22.07,-21.17,0,*5F
1486839800.89,35198,10.69,73784.3,-8.95,-22.07,-21.17,0,*50
1486839802.12,35199,10.69,73788.0,-8.95,-22.07,-21.17,0,*51
1486839803.35,35200,10.69,73786.5,-8.95,-22.07,-21.17,0,*52
1486839804.58,35201,10.69,73784.8,-8.95,-22.07,-21.17,0,*53
1486839805.82,35202,10.69,73786.5,-8.95,-22.11,-21.17,0,*57
1486839807.08,35203,10.69,73786.3,-8.95,-22.17,-21.09,0,*5F
1486839808.31,35204,10.69,73784.3,-8.95,-22.11,-21.09,0,*5E
1486839809.51,35205,10.69,73782.8,-8.93,-22.11,-21.09,0,*59
1486839810.72,35206,10.69,73782.0,-8.93,-22.11,-21.09,0,*5A
1486839811.95,35207,10.69,73784.3,-8.95,-22.11,-21.09,0,*5D
1486839813.18,35208,10.69,73788.0,-8.95,-22.11,-21.09,0,*52
1486839814.39,35209,10.69,73786.0,-8.93,-22.11,-21.09,0,*55
1486839815.59,35210,10.69,73784.8,-8.93,-22.11,-21.09,0,*5D
1486839816.82,35211,10.69,73784.8,-8.95,-22.11,-21.09,0,*5A
1486839818.06,35212,10.69,73784.0,-8.95,-22.11,-21.17,0,*56
1486839819.29,35213,10.69,73784.5,-8.95,-22.11,-21.17,0,*57
1486839820.52,35214,10.69,73786.0,-8.95,-22.11,-21.09,0,*5F
1486839821.76,35215,10.69,73782.0,-8.93,-22.11,-21.03,0,*52
1486839823.0,35216,10.69,73784.3,-8.93,-22.11,-21.03,0,*51
1486839824.23,35217,10.69,73784.8,-8.93,-22.11,-21.03,0,*50
1486839825.46,35218,10.69,73786.0,-8.95,-22.11,-21.09,0,*53
1486839826.69,35219,10.69,73782.8,-8.95,-22.11,-21.09,0,*52
1486839827.93,35220,10.69,73784.0,-8.93,-22.11,-21.03,0,*54
1486839829.14,35221,10.69,73780.0,-8.93,-22.11,-21.09,0,*5F
1486839830.37,35222,10.69,73786.8,-8.95,-22.11,-21.09,0,*5A
1486839831.57,35223,10.69,73786.3,-8.93,-22.11,-21.09,0,*5D
1486839832.83,35224,10.69,73786.3,-8.95,-22.11,-21.03,0,*56
1486839834.09,35225,10.69,73784.3,-8.95,-22.11,-21.03,0,*57
1486839835.32,35226,10.69,73786.0,-8.95,-22.11,-21.09,0,*5E
1486839836.53,35227,10.69,73784.5,-8.93,-22.11,-21.09,0,*59
1486839837.76,35228,10.69,73786.5,-8.95,-22.11,-21.09,0,*50
1486839838.99,35229,10.69,73784.0,-8.93,-22.07,-21.03,0,*5A
1486839840.22,35230,10.69,73782.5,-8.93,-22.07,-21.03,0,*52
1486839841.49,35231,10.69,73786.3,-8.93,-22.17,-21.03,0,*52
1486839842.72,35232,10.69,73784.5,-8.93,-22.11,-21.03,0,*57
1486839843.95,35233,10.69,73786.3,-8.95,-22.11,-21.09,0,*5A
1486839845.18,35234,10.69,73784.3,-8.95,-22.11,-21.09,0,*5D
1486839846.42,35235,10.69,73784.8,-8.93,-22.11,-21.03,0,*50
1486839847.66,35236,10.69,73780.3,-8.93,-22.11,-21.03,0,*53
1486839848.89,35237,10.69,73786.5,-8.95,-22.11,-21.09,0,*5E
1486839850.09,35238,10.69,73790.8,-8.93,-22.11,-21.09,0,*57
1486839851.35,35239,10.69,73786.3,-8.95,-22.11,-21.03,0,*5A
1486839852.58,35240,10.69,73786.3,-8.93,-22.07,-21.03,0,*55
1486839853.81,35241,10.69,73786.5,-8.93,-22.07,-21.03,0,*54
1486839855.04,35242,10.69,73784.0,-8.93,-22.07,-21.03,0,*57
1486839856.28,35243,10.69,73786.3,-8.93,-22.07,-20.99,0,*54
1486839857.51,35244,10.69,73786.8,-8.93,-22.07,-20.99,0,*53
1486839858.74,35245,10.69,73784.8,-8.93,-22.07,-20.99,0,*52
1486839859.99,35246,10.69,73784.5,-8.95,-22.07,-21.03,0,*55
1486839861.23,35247,10.69,73782.5,-8.93,-22.07,-20.99,0,*50
1486839862.46,35248,10.69,73786.8,-8.93,-22.07,-20.99,0,*5F
1486839863.69,35249,10.69,73788.3,-8.93,-22.07,-20.99,0,*5E
1486839864.92,35250,10.69,73784.0,-8.93,-22.07,-20.99,0,*56
1486839866.15,35251,10.69,73784.5,-8.93,-22.07,-20.99,0,*57
1486839867.38,35252,10.69,73784.3,-8.93,-22.07,-20.99,0,*54
1486839868.61,35253,10.69,73784.8,-8.93,-22.07,-20.99,0,*55
1486839869.84,35254,10.69,73780.0,-8.93,-22.07,-21.03,0,*50
1486839871.11,35255,10.69,73782.3,-8.93,-21.97,-20.99,0,*59
1486839872.34,35256,10.69,73784.8,-8.93,-22.07,-21.03,0,*52
1486839873.59,35257,10.69,73782.5,-8.95,-22.07,-20.99,0,*57
1486839874.82,35258,10.69,73786.0,-8.93,-22.07,-20.99,0,*5E
1486839876.06,35259,10.69,73784.3,-8.93,-22.07,-20.99,0,*5F
1486839877.31,35260,10.69,73782.3,-8.95,-22.07,-20.99,0,*53
1486839878.52,35261,10.69,73780.8,-8.93,-22.07,-20.89,0,*55
1486839879.76,35262,10.69,73784.5,-8.93,-22.07,-20.99,0,*57
1486839880.99,35263,10.69,73782.5,-8.93,-22.07,-20.99,0,*56
1486839882.23,35264,10.69,73784.0,-8.93,-21.97,-20.89,0,*5A
1486839883.46,35265,10.69,73786.8,-8.93,-22.07,-20.99,0,*50
1486839884.71,35266,10.69,73782.8,-8.93,-21.97,-20.89,0,*58
1486839885.94,35267,10.69,73786.3,-8.93,-22.07,-20.99,0,*52
1486839887.15,35268,10.69,73784.5,-8.93,-22.07,-20.89,0,*5C
1486839888.39,35269,10.69,73786.5,-8.93,-22.07,-20.99,0,*5C
1486839889.65,35270,10.69,73784.0,-8.93,-21.97,-20.99,0,*5E
1486839890.91,35271,10.69,73784.0,-8.93,-21.97,-20.99,0,*5F
1486839892.16,35272,10.69,73786.8,-8.95,-22.07,-20.99,0,*50
1486839893.4,35273,10.69,73784.0,-8.91,-22.03,-20.93,0,*5B
1486839894.65,35274,10.69,73784.3,-8.91,-22.03,-21.03,0,*54
1486839895.88,35275,10.69,73784.3,-8.91,-22.03,-20.93,0,*5D
1486839897.09,35276,10.69,73784.0,-8.93,-22.07,-20.89,0,*53
1486839898.34,35277,10.69,73782.5,-8.93,-21.97,-20.89,0,*58
1486839899.55,35278,10.69,73786.3,-8.93,-22.07,-20.89,0,*5D
1486839900.78,35279,10.69,73786.3,-8.93,-22.07,-20.99,0,*5D
1486839902.07,35280,10.69,73786.0,-8.95,-21.97,-20.99,0,*57
1486839903.3,35281,10.69,73786.3,-8.91,-22.03,-20.93,0,*56
1486839904.53,35282,10.69,73784.0,-8.91,-22.03,-20.93,0,*55
1486839905.76,35283,10.69,73784.0,-8.91,-22.03,-20.93,0,*54
1486839906.99,35284,10.69,73790.0,-8.91,-22.03,-20.93,0,*53
1486839908.25,35285,10.69,73784.3,-8.91,-22.03,-20.83,0,*53
1486839909.5,35286,10.69,73784.8,-8.89,-21.87,-20.89,0,*5C
1486839910.73,35287,10.69,73784.5,-8.91,-22.03,-20.93,0,*50
1486839911.96,35288,10.69,73788.3,-8.91,-22.03,-20.93,0,*5F
1486839913.22,35289,10.69,73788.8,-8.91,-21.93,-20.83,0,*55
1486839914.47,35290,10.69,73786.5,-8.91,-22.03,-20.83,0,*57
1486839915.71,35291,10.69,73788.5,-8.91,-21.93,-20.93,0,*5D
1486839916.96,35292,10.69,73788.3,-8.89,-21.87,-20.89,0,*59
1486839918.21,35293,10.69,73784.8,-8.91,-22.03,-20.83,0,*54
1486839919.45,35294,10.69,73790.5,-8.91,-21.93,-20.93,0,*58
1486839920.7,35295,10.69,73786.8,-8.89,-21.87,-20.89,0,*5E
1486839921.94,35296,10.69,73790.0,-8.91,-21.93,-20.93,0,*5A
1486839923.17,35297,10.69,73788.0,-8.91,-21.93,-20.93,0,*5B
1486839924.41,35298,10.69,73784.8,-8.91,-21.93,-20.93,0,*54
1486839925.67,35299,10.69,73786.0,-8.91,-21.93,-20.83,0,*54
1486839926.88,35300,10.69,73788.3,-8.93,-22.07,-20.89,0,*53
1486839928.12,35301,10.69,73790.0,-8.91,-22.03,-20.93,0,*5F
1486839929.38,35302,10.69,73792.3,-8.93,-21.97,-20.99,0,*5A
1486839930.61,35303,10.69,73790.5,-8.93,-22.07,-20.99,0,*51
1486839931.86,35304,10.69,73794.5,-8.91,-22.03,-20.83,0,*5B
1486839933.12,35305,10.69,73792.8,-8.91,-21.93,-20.99,0,*5B
1486839934.38,35306,10.69,73792.0,-8.91,-22.03,-20.83,0,*59
1486839935.61,35307,10.69,73792.3,-8.91,-22.03,-20.93,0,*59
1486839936.89,35308,10.69,73792.3,-8.91,-21.97,-20.83,0,*59
1486839938.13,35309,10.69,73792.8,-8.91,-21.93,-20.93,0,*5D
1486839939.36,35310,10.69,73788.8,-8.91,-22.03,-20.93,0,*5F
1486839940.61,35311,10.69,73788.8,-8.91,-22.03,-20.99,0,*54
1486839941.84,35312,10.69,73794.5,-8.91,-22.03,-20.93,0,*5D
1486839943.07,35313,10.69,73794.0,-8.91,-22.03,-20.93,0,*5C
1486839944.31,35314,10.69,73794.8,-8.91,-21.93,-20.93,0,*51
1486839945.54,35315,10.69,73792.3,-8.91,-22.03,-20.93,0,*5A
1486839946.78,35316,10.69,73792.0,-8.91,-21.93,-20.93,0,*53
1486839948.01,35317,10.69,73790.8,-8.91,-22.03,-20.93,0,*58
1486839949.24,35318,10.69,73788.0,-8.91,-22.03,-20.93,0,*57
1486839950.48,35319,10.69,73788.8,-8.89,-21.97,-20.93,0,*51
1486839951.73,35320,10.69,73788.5,-8.91,-22.03,-20.99,0,*56
1486839952.98,35321,10.69,73790.8,-8.89,-21.97,-20.89,0,*51
1486839954.21,35322,10.69,73790.3,-8.91,-22.03,-20.93,0,*5E
1486839955.47,35323,10.69,73790.8,-8.93,-21.97,-20.99,0,*59
1486839956.72,35324,10.69,73786.8,-8.91,-22.03,-20.99,0,*52
1486839957.98,35325,10.69,73788.0,-8.91,-22.03,-20.99,0,*53
1486839959.19,35326,10.69,73792.5,-8.89,-22.03,-20.93,0,*53
1486839960.44,35327,10.69,73790.0,-8.91,-22.03,-20.99,0,*51
1486839961.68,35328,10.69,73790.0,-8.91,-22.03,-20.93,0,*54
1486839962.93,35329,10.69,73788.8,-8.91,-22.03,-20.99,0,*5F
1486839964.18,35330,10.69,73790.0,-8.91,-22.03,-21.03,0,*55
1486839965.41,35331,10.69,73790.3,-8.91,-22.03,-20.93,0,*5C
1486839966.68,35332,10.69,73788.0,-8.89,-21.97,-20.99,0,*52
1486839967.93,35333,10.69,73788.3,-8.91,-22.03,-20.99,0,*54
1486839969.18,35334,10.69,73788.3,-8.91,-22.03,-21.03,0,*51
1486839970.42,35335,10.69,73790.0,-8.89,-21.97,-20.93,0,*5F
1486839971.68,35336,10.69,73786.8,-8.91,-22.03,-20.99,0,*51
1486839972.92,35337,10.69,73790.0,-8.89,-21.87,-20.93,0,*5C
1486839974.17,35338,10.69,73790.8,-8.91,-22.03,-20.99,0,*5F
1486839975.42,35339,10.69,73786.0,-8.89,-21.97,-20.89,0,*58
1486839976.67,35340,10.69,73792.5,-8.91,-22.03,-21.03,0,*52
1486839977.93,35341,10.69,73788.5,-8.91,-21.93,-20.99,0,*5B
1486839979.19,35342,10.69,73790.5,-8.91,-22.03,-20.99,0,*52
1486839980.44,35343,10.69,73792.5,-8.91,-22.03,-20.99,0,*53
1486839981.7,35344,10.69,73790.0,-8.91,-21.93,-20.99,0,*5E
1486839982.96,35345,10.69,73788.3,-8.91,-22.03,-20.99,0,*55
1486839984.21,35346,10.69,73788.8,-8.91,-22.03,-20.99,0,*56
1486839985.47,35347,10.69,73788.8,-8.91,-22.03,-21.03,0,*55
1486839986.72,35348,10.69,73792.0,-8.91,-22.03,-21.03,0,*5A
1486839987.97,35349,10.69,73790.3,-8.91,-22.03,-21.03,0,*5B
1486839989.23,35350,10.69,73788.3,-8.91,-22.03,-20.99,0,*51
1486839990.48,35351,10.69,73790.3,-8.91,-22.03,-21.03,0,*52
1486839991.74,35352,10.69,73788.5,-8.91,-22.03,-20.99,0,*53
1486839992.99,35353,10.69,73790.0,-8.91,-22.03,-20.99,0,*52
1486839994.25,35354,10.69,73790.8,-8.89,-21.97,-20.99,0,*52
1486839995.51,35355,10.69,73790.3,-8.91,-22.03,-21.03,0,*56
1486839996.76,35356,10.69,73794.0,-8.91,-22.03,-21.03,0,*55
1486839998.02,35357,10.69,73790.5,-8.89,-21.97,-20.99,0,*51
1486839999.27,35358,10.69,73794.0,-8.91,-22.03,-21.03,0,*5B
1486840000.51,35359,10.69,73794.5,-8.91,-21.93,-21.13,0,*51
1486840001.76,35360,10.69,73790.8,-8.91,-22.03,-21.03,0,*50
1486840003.02,35361,10.69,73792.5,-8.91,-22.03,-21.03,0,*51
1486840004.27,35362,10.69,73790.0,-8.91,-22.03,-21.03,0,*52
1486840005.52,35363,10.69,73794.5,-8.91,-22.03,-20.99,0,*51
1486840006.75,35364,10.69,73788.8,-8.91,-22.03,-21.13,0,*55
1486840007.98,35365,10.69,73794.0,-8.91,-22.03,-21.13,0,*54
1486840009.23,35366,10.69,73794.8,-8.91,-22.07,-21.03,0,*52
1486840010.48,35367,10.69,73788.0,-8.91,-22.07,-21.03,0,*53
1486840011.71,35368,10.69,73790.8,-8.91,-22.03,-21.13,0,*59
1486840012.91,35369,10.69,73788.3,-8.93,-22.07,-21.09,0,*55
1486840014.13,35370,10.69,73788.5,-8.95,-22.07,-21.09,0,*5B
1486840015.33,35371,10.69,73792.0,-8.93,-22.07,-21.09,0,*5C
1486840016.54,35372,10.69,73790.3,-8.93,-22.07,-21.17,0,*50
1486840017.74,35373,10.69,73790.8,-8.93,-22.07,-21.17,0,*51
1486840018.94,35374,10.69,73788.3,-8.93,-22.07,-21.09,0,*59
1486840020.15,35375,10.69,73788.0,-8.93,-22.07,-21.17,0,*57
1486840021.36,35376,10.69,73790.0,-8.93,-22.07,-21.17,0,*54
1486840022.6,35377,10.69,73790.5,-8.93,-22.07,-21.23,0,*52
1486840023.86,35378,10.69,73790.8,-8.95,-22.07,-21.23,0,*5B
1486840025.07,35379,10.69,73794.3,-8.93,-22.11,-21.17,0,*5C
1486840026.31,35380,10.69,73788.0,-8.93,-22.11,-21.23,0,*5D
1486840027.53,35381,10.69,73788.8,-8.93,-22.11,-21.17,0,*5B
1486840028.74,35382,10.69,73792.0,-8.93,-22.11,-21.17,0,*58
1486840029.95,35383,10.69,73788.5,-8.93,-22.07,-21.17,0,*5E
1486840031.16,35384,10.69,73790.8,-8.93,-22.07,-21.17,0,*59
1486840032.39,35385,10.69,73790.0,-8.91,-22.03,-21.17,0,*5E
1486840033.65,35386,10.69,73784.8,-8.95,-22.07,-21.23,0,*5A
1486840034.87,35387,10.69,73788.5,-8.91,-22.07,-21.17,0,*58
1486840036.1,35388,10.69,73792.3,-8.91,-22.07,-21.17,0,*57
1486840037.37,35389,10.69,73790.3,-8.93,-22.17,-21.23,0,*52
1486840038.62,35390,10.69,73788.5,-8.93,-22.11,-21.23,0,*5C
1486840039.85,35391,10.69,73788.3,-8.95,-22.11,-21.17,0,*5C
1486840041.1,35392,10.69,73790.5,-8.93,-22.11,-21.23,0,*5E
1486840042.31,35393,10.69,73788.3,-8.93,-22.11,-21.17,0,*58
1486840043.55,35394,10.69,73788.8,-8.93,-22.11,-21.23,0,*58
1486840044.8,35395,10.69,73788.3,-8.93,-22.11,-21.23,0,*59
1486840046.04,35396,10.69,73788.3,-8.93,-22.07,-21.23,0,*5D
1486840047.26,35397,10.69,73790.5,-8.93,-22.07,-21.33,0,*5D
1486840048.47,35398,10.69,73786.5,-8.93,-22.07,-21.39,0,*58
1486840049.73,35399,10.69,73788.5,-8.95,-22.11,-21.33,0,*52
1486840050.96,35400,10.69,73788.0,-8.93,-22.11,-21.33,0,*53
1486840052.2,35401,10.69,73790.3,-8.93,-22.11,-21.23,0,*53
1486840053.41,35402,10.69,73788.3,-8.93,-22.11,-21.39,0,*5B
1486840054.63,35403,10.69,73790.0,-8.93,-22.11,-21.39,0,*5A
1486840055.86,35404,10.69,73788.5,-8.93,-22.11,-21.33,0,*57
1486840057.13,35405,10.69,73788.8,-8.93,-22.17,-21.33,0,*50
1486840058.38,35406,10.69,73790.5,-8.95,-22.11,-21.33,0,*53
1486840059.62,35407,10.69,73788.3,-8.93,-22.17,-21.39,0,*58
1486840060.86,35408,10.69,73790.5,-8.93,-22.11,-21.33,0,*5B
1486840062.12,35409,10.69,73788.0,-8.95,-22.11,-21.33,0,*5C
1486840063.34,35410,10.69,73788.8,-8.93,-22.07,-21.33,0,*55
1486840064.55,35411,10.69,73788.8,-8.93,-22.07,-21.39,0,*5E
1486840065.81,35412,10.69,73794.3,-8.95,-22.11,-21.33,0,*56
1486840067.04,35413,10.69,73784.0,-8.95,-22.11,-21.39,0,*5D
1486840068.27,35414,10.69,73788.0,-8.95,-22.11,-21.39,0,*5A
1486840069.49,35415,10.69,73790.8,-8.93,-22.11,-21.39,0,*5D
1486840070.73,35416,10.69,73790.3,-8.93,-22.17,-21.39,0,*58
1486840071.96,35417,10.69,73788.8,-8.95,-22.11,-21.39,0,*59
1486840073.2,35418,10.69,73788.3,-8.95,-22.11,-21.39,0,*56
1486840074.44,35419,10.69,73790.3,-8.93,-22.17,-21.39,0,*57
1486840075.7,35420,10.69,73790.8,-8.95,-22.17,-21.39,0,*5B
1486840076.94,35421,10.69,73790.5,-8.95,-22.11,-21.39,0,*5C
1486840078.17,35422,10.69,73794.0,-8.95,-22.11,-21.39,0,*5F
1486840079.41,35423,10.69,73786.0,-8.95,-22.11,-21.39,0,*5E
1486840080.67,35424,10.69,73792.8,-8.95,-22.17,-21.47,0,*56
1486840081.91,35425,10.69,73784.8,-8.93,-22.17,-21.47,0,*51
1486840083.18,35426,10.69,73786.3,-8.95,-22.17,-21.47,0,*54
1486840084.44,35427,10.69,73790.5,-8.95,-22.17,-21.47,0,*55
1486840085.7,35428,10.69,73788.0,-8.95,-22.11,-21.53,0,*59
1486840086.94,35429,10.69,73792.3,-8.93,-22.17,-21.39,0,*54
1486840088.21,35430,10.69,73792.5,-8.95,-22.17,-21.39,0,*5A
1486840089.47,35431,10.69,73788.3,-8.95,-22.11,-21.33,0,*57
1486840090.73,35432,10.69,73790.0,-8.95,-22.17,-21.39,0,*58
1486840091.97,35433,10.69,73788.5,-8.95,-22.11,-21.39,0,*5F
1486840093.23,35434,10.69,73790.3,-8.95,-22.17,-21.47,0,*57
1486840094.5,35435,10.69,73790.5,-8.95,-22.17,-21.47,0,*56
1486840095.79,35436,10.69,73788.3,-8.95,-22.17,-21.53,0,*50
1486840097.03,35437,10.69,73788.3,-8.93,-22.17,-21.47,0,*52
1486840098.29,35438,10.69,73790.3,-8.95,-22.17,-21.47,0,*5B